| time (UTC) | temp C | wind direction | speed KPH | gust KPH | rain 1hr cm | rain 24hr cm | rain mn cm | humidity % | barometer mb |
| 20260506204548 | 33 | 196 | 4.8 | 24.1 | 0.00 | 0.00 | 0.00 | 43 | 1013.6 |
| 20260506160101 | 28 | 208 | 4.8 | 17.7 | 0.00 | 0.00 | 0.00 | 58 | 1016.6 |
| 20260506154521 | 28 | 291 | 4.8 | 17.7 | 0.00 | 0.00 | 0.00 | 58 | 1016.8 |
| 20260506153105 | 28 | 247 | 8.0 | 20.9 | 0.00 | 0.00 | 0.00 | 59 | 1016.7 |
| 20260506151526 | 27 | 269 | 3.2 | 16.1 | 0.00 | 0.00 | 0.00 | 60 | 1016.7 |
| 20260506144526 | 26 | 111 | 8.0 | 19.3 | 0.00 | 0.00 | 0.00 | 61 | 1016.7 |
| 20260506143104 | 26 | 254 | 4.8 | 16.1 | 0.00 | 0.00 | 0.00 | 62 | 1016.4 |
| 20260506141533 | 25 | 159 | 4.8 | 14.5 | 0.00 | 0.00 | 0.00 | 66 | 1016.4 |
| 20260506140101 | 25 | 281 | 3.2 | 11.3 | 0.00 | 0.00 | 0.00 | 69 | 1016.4 |
| 20260506134516 | 23 | 118 | 4.8 | 17.7 | 0.00 | 0.00 | 0.00 | 71 | 1016.5 |
| 20260506133102 | 23 | 146 | 3.2 | 16.1 | 0.00 | 0.00 | 0.00 | 72 | 1016.4 |
| 20260506131509 | 22 | 217 | 3.2 | 9.7 | 0.00 | 0.00 | 0.00 | 72 | 1016.5 |
| 20260506130041 | 22 | 165 | 3.2 | 14.5 | 0.00 | 0.00 | 0.00 | 74 | 1016.5 |
| 20260506124615 | 21 | 156 | 1.6 | 6.4 | 0.00 | 0.00 | 0.00 | 76 | 1016.4 |
| 20260506123033 | 19 | 167 | 0.0 | 4.8 | 0.00 | 0.00 | 0.00 | 80 | 1016.3 |
| 20260506121611 | 17 | 88 | 0.0 | 3.2 | 0.00 | 0.00 | 0.00 | 82 | 1016.0 |
| 20260506120044 | 16 | 88 | 0.0 | 3.2 | 0.00 | 0.00 | 0.00 | 86 | 1015.8 |
| 20260506114509 | 15 | 88 | 0.0 | 0.0 | 0.00 | 0.00 | 0.00 | 90 | 1015.7 |
| 20260506113043 | 14 | 88 | 0.0 | 1.6 | 0.00 | 0.00 | 0.00 | 90 | 1015.6 |
| 20260506111508 | 13 | 137 | 0.0 | 0.0 | 0.00 | 0.00 | 0.00 | 91 | 1015.7 |
| 20260506110045 | 13 | 137 | 0.0 | 0.0 | 0.00 | 0.00 | 0.00 | 90 | 1015.6 |
| 20260506104533 | 13 | 137 | 0.0 | 0.0 | 0.00 | 0.00 | 0.00 | 90 | 1015.4 |
| 20260506103105 | 13 | 137 | 0.0 | 0.0 | 0.00 | 0.00 | 0.00 | 90 | 1015.3 |
| 20260506101524 | 13 | 137 | 0.0 | 0.0 | 0.00 | 0.00 | 0.00 | 89 | 1015.1 |
| 20260506100105 | 13 | 137 | 0.0 | 0.0 | 0.00 | 0.00 | 0.00 | 89 | 1015.3 |
| 20260506094534 | 13 | 137 | 0.0 | 0.0 | 0.00 | 0.00 | 0.00 | 88 | 1015.3 |
| 20260506093104 | 13 | 137 | 0.0 | 0.0 | 0.00 | 0.00 | 0.00 | 88 | 1015.3 |
| 20260506091522 | 13 | 137 | 0.0 | 0.0 | 0.00 | 0.00 | 0.00 | 88 | 1015.3 |
| 20260506090054 | 14 | 137 | 0.0 | 0.0 | 0.00 | 0.00 | 0.00 | 88 | 1015.2 |
| 20260506084517 | 14 | 137 | 0.0 | 0.0 | 0.00 | 0.00 | 0.00 | 88 | 1014.9 |
| 20260506083058 | 14 | 137 | 0.0 | 0.0 | 0.00 | 0.00 | 0.00 | 88 | 1015.1 |
| 20260506081521 | 15 | 137 | 0.0 | 0.0 | 0.00 | 0.00 | 0.00 | 87 | 1015.1 |
| 20260506080113 | 15 | 137 | 0.0 | 0.0 | 0.00 | 0.00 | 0.00 | 87 | 1015.2 |
| 20260506073103 | 15 | 137 | 0.0 | 0.0 | 0.00 | 0.00 | 0.00 | 86 | 1015.0 |
| 20260506071515 | 15 | 137 | 0.0 | 0.0 | 0.00 | 0.00 | 0.00 | 85 | 1014.7 |
| 20260506061528 | 15 | 137 | 0.0 | 0.0 | 0.00 | 0.00 | 0.00 | 85 | 1015.5 |
| 20260506060106 | 15 | 137 | 0.0 | 0.0 | 0.00 | 0.00 | 0.00 | 85 | 1015.9 |
| 20260506050105 | 16 | 137 | 0.0 | 0.0 | 0.00 | 0.00 | 0.00 | 82 | 1016.3 |
| 20260506044515 | 16 | 137 | 0.0 | 3.2 | 0.00 | 0.00 | 0.00 | 81 | 1016.3 |
| 20260506043053 | 16 | 137 | 0.0 | 0.0 | 0.00 | 0.00 | 0.00 | 80 | 1016.3 |
| 20260506041512 | 16 | 137 | 0.0 | 3.2 | 0.00 | 0.00 | 0.00 | 78 | 1016.4 |
| 20260506040050 | 17 | 137 | 0.0 | 0.0 | 0.00 | 0.00 | 0.00 | 77 | 1016.4 |
| 20260506034519 | 17 | 137 | 0.0 | 0.0 | 0.00 | 0.00 | 0.00 | 76 | 1016.4 |
| 20260506033054 | 17 | 137 | 0.0 | 0.0 | 0.00 | 0.00 | 0.00 | 74 | 1016.4 |
| 20260506031515 | 18 | 137 | 0.0 | 3.2 | 0.00 | 0.00 | 0.00 | 71 | 1016.3 |
| 20260506030051 | 20 | 137 | 1.6 | 3.2 | 0.00 | 0.00 | 0.00 | 67 | 1016.0 |
| 20260506024526 | 19 | 137 | 0.0 | 4.8 | 0.00 | 0.00 | 0.00 | 69 | 1016.1 |
| 20260506023056 | 20 | 137 | 1.6 | 4.8 | 0.00 | 0.00 | 0.00 | 65 | 1015.8 |
| 20260506021538 | 20 | 136 | 0.0 | 3.2 | 0.00 | 0.00 | 0.00 | 64 | 1016.0 |
| 20260506020058 | 21 | 136 | 1.6 | 4.8 | 0.00 | 0.00 | 0.00 | 62 | 1015.6 |
| 20260506014529 | 21 | 135 | 3.2 | 6.4 | 0.00 | 0.00 | 0.00 | 60 | 1015.4 |
| 20260506013106 | 22 | 134 | 3.2 | 6.4 | 0.00 | 0.00 | 0.00 | 58 | 1015.2 |
| 20260506011532 | 22 | 135 | 3.2 | 9.7 | 0.00 | 0.00 | 0.00 | 57 | 1015.0 |
| 20260506010109 | 22 | 130 | 3.2 | 6.4 | 0.00 | 0.00 | 0.00 | 56 | 1015.0 |
| 20260506004529 | 23 | 139 | 4.8 | 11.3 | 0.00 | 0.00 | 0.00 | 55 | 1014.9 |
| 20260506003118 | 23 | 136 | 4.8 | 11.3 | 0.00 | 0.00 | 0.00 | 54 | 1014.7 |
| 20260506001533 | 23 | 132 | 4.8 | 14.5 | 0.00 | 0.00 | 0.00 | 54 | 1014.6 |
| 20260506000002 | 24 | 128 | 6.4 | 14.5 | 0.00 | 0.00 | 0.00 | 52 | 1014.3 |
| 20260505234602 | 25 | 117 | 8.0 | 17.7 | 0.00 | 0.00 | 0.00 | 52 | 1014.1 |
| 20260505233004 | 25 | 140 | 11.3 | 19.3 | 0.00 | 0.00 | 0.00 | 51 | 1014.0 |
| 20260505231547 | 25 | 134 | 8.0 | 17.7 | 0.00 | 0.00 | 0.00 | 50 | 1014.0 |
| 20260505230010 | 26 | 121 | 6.4 | 19.3 | 0.00 | 0.00 | 0.00 | 50 | 1014.0 |
| 20260505224539 | 26 | 131 | 9.7 | 19.3 | 0.00 | 0.00 | 0.00 | 48 | 1014.0 |
| 20260505223115 | 27 | 130 | 9.7 | 19.3 | 0.00 | 0.00 | 0.00 | 47 | 1013.8 |
| 20260505221534 | 27 | 132 | 12.9 | 22.5 | 0.00 | 0.00 | 0.00 | 46 | 1013.5 |
| 20260505220113 | 28 | 119 | 8.0 | 20.9 | 0.00 | 0.00 | 0.00 | 45 | 1013.5 |
| 20260505214544 | 30 | 174 | 3.2 | 11.3 | 0.00 | 0.00 | 0.00 | 38 | 1013.4 |
| 20260505213109 | 30 | 244 | 4.8 | 12.9 | 0.00 | 0.00 | 0.00 | 37 | 1013.5 |
| 20260505211539 | 30 | 147 | 4.8 | 16.1 | 0.00 | 0.00 | 0.00 | 39 | 1013.5 |
| 20260505210103 | 29 | 137 | 8.0 | 16.1 | 0.00 | 0.00 | 0.00 | 37 | 1013.6 |